Marina Di Campo Airport

Jump to: basic info | weather | frequencies | runways | comments

Related pages: nearby airports | nearby navaids | notams | map

Basic information (top)

Codes: EBA LIRJ
Location: lon 42.760300, lat 10.239400, elev 31 ft / 9 m msl
Status: medium_airport

Weather (top)

Current conditions for Bastia-Poretta Airport 36nm (66km) WSW (rec'd 2014/07/22 09:00Z):

LFKB 220900Z 35013KT 9999 FEW023 SCT040 24/18 Q1008 NOSIG

Airport forecast for Bastia-Poretta Airport 36nm (66km) WSW (rec'd 2014/07/22 06:15Z):

TAF LFKB 220500Z 2206/2306 32010KT 9999 FEW020CB BKN080 PROB30 
      TEMPO 2206/2209 SHRA 
      TEMPO 2209/2211 32015G25KT 
      BECMG 2211/2213 02010KT 
      BECMG 2215/2217 FEW030 SCT260 
      BECMG 2220/2222 22003KT TX27/2212Z TN18/2304Z

Frequencies (top)

Verify before use: may be inaccurate or out of date.

AFIS: 123.7 MHz (AFIS)

Runways (top)

16/34: 3,114 x 75 ft (949 x 23 m) — paved — not lighted — threshold 16 displaced 479 ft (146 m) — threshold 34 displaced 285 ft (87 m)

Latest comments (top)

No comments yet for Marina Di Campo Airport

More... (top)

See also NOTAMs and nearby airports and navaids, or visit the Marina Di Campo Airport page at the main OurAirports website..